Weather History for Milwaukee Timmerman, WI

Change the Weather History Date:

Thursday, February 21, 2013

  Actual Average Record
Temperature  
Mean Temperature 20 °F -  
Max Temperature 26 °F 36 °F 54 °F (1983)
Min Temperature 14 °F 21 °F -13 °F (1963)
Degree Days  
Heating Degree Days 45    
Moisture  
Dew Point 16 °F    
Average Humidity 80    
Maximum Humidity 86    
Minimum Humidity 68    
Precipitation  
Precipitation 0.00 in - - ()
Sea Level Pressure  
Sea Level Pressure 30.27 in    
Wind  
Wind Speed 10 mph (NNE)    
Max Wind Speed 17 mph    
Max Gust Speed 26 mph    
Visibility 10 miles    
Events Snow    
Averages and records for this station are not official NWS values.
T = Trace of Precipitation, MM = Missing Value Source: NWS Daily Summary

Daily Weather History Graph

Daily Weather History Graph

Search for Another Location

Airport:

Trip Planner

Search our weather history database for the weather conditions in past years. The results will help you decide how hot, cold, wet, or windy it might be!

Date:

Astronomy

Feb. 21, 2013 Rise Set
Actual Time 6:40 AM CST 5:31 PM CST
Civil Twilight 6:11 AM CST 6:00 PM CST
Nautical Twilight 5:38 AM CST 6:33 PM CST
Astronomical Twilight 5:05 AM CST 7:06 PM CST
Moon 1:42 PM CST (2/21) 3:49 AM CST (2/21)
Length of Visible Light 11h 48m
Length of Day
10h 50m
Waxing Gibbous, 84% of the Moon is Illuminated
Feb 21
Waxing Gibbous
Feb 25
Full
Mar 4
Last Quarter
Mar 11
New
Mar 19
First Quarter

Hourly Weather History & Observations

Time (CST) Temp. Windchill Dew Point Humidity Pressure Visibility Wind Dir Wind Speed Gust Speed Precip Events Conditions
12:15 AM 17.6 °F 6.4 °F 8.6 °F 68% 30.36 in 10.0 mi North 9.2 mph - N/A   Clear
12:35 AM 17.6 °F 7.3 °F 8.6 °F 68% 30.36 in 10.0 mi North 8.1 mph - N/A   Clear
12:55 AM 17.6 °F 6.4 °F 8.6 °F 68% 30.37 in 10.0 mi North 9.2 mph - N/A   Clear
1:15 AM 17.6 °F 6.4 °F 8.6 °F 68% 30.37 in 10.0 mi North 9.2 mph - N/A   Mostly Cloudy
1:35 AM 15.8 °F 3.4 °F 8.6 °F 73% 30.36 in 10.0 mi North 10.4 mph - N/A   Mostly Cloudy
1:55 AM 15.8 °F 4.2 °F 8.6 °F 73% 30.36 in 10.0 mi North 9.2 mph - N/A   Mostly Cloudy
2:15 AM 15.8 °F 4.2 °F 8.6 °F 73% 30.36 in 10.0 mi North 9.2 mph - N/A   Overcast
2:35 AM 14.0 °F 3.9 °F 8.6 °F 79% 30.36 in 10.0 mi NNW 6.9 mph - N/A   Overcast
2:55 AM 14.0 °F 3.9 °F 8.6 °F 79% 30.36 in 10.0 mi North 6.9 mph - N/A   Overcast
3:15 AM 14.0 °F 3.9 °F 8.6 °F 79% 30.36 in 10.0 mi North 6.9 mph - N/A   Mostly Cloudy
3:35 AM 14.0 °F 3.9 °F 10.4 °F 86% 30.36 in 10.0 mi NNW 6.9 mph - N/A   Overcast
3:55 AM 14.0 °F 5.1 °F 10.4 °F 86% 30.37 in 10.0 mi NNW 5.8 mph - N/A   Overcast
4:15 AM 15.8 °F 5.1 °F 10.4 °F 79% 30.38 in 10.0 mi NNW 8.1 mph - N/A   Overcast
4:35 AM 15.8 °F 5.1 °F 10.4 °F 79% 30.38 in 10.0 mi NNW 8.1 mph - N/A   Overcast
4:55 AM 15.8 °F 3.4 °F 12.2 °F 86% 30.40 in 10.0 mi NNW 10.4 mph - N/A Snow Light Snow
5:15 AM 15.8 °F 7.2 °F 12.2 °F 86% 30.40 in 10.0 mi NNW 5.8 mph - N/A   Overcast
5:55 AM 15.8 °F 6.1 °F 12.2 °F 86% 30.38 in 10.0 mi North 6.9 mph - N/A Snow Light Snow
6:45 AM 15.8 °F 7.2 °F 10.4 °F 79% 30.36 in 10.0 mi North 5.8 mph - N/A Snow Light Snow
7:45 AM 15.8 °F 7.2 °F 12.2 °F 86% 30.39 in 3.0 mi WNW 5.8 mph - N/A Snow Light Snow
8:45 AM 17.6 °F 9.3 °F 14.0 °F 86% 30.40 in 7.0 mi WNW 5.8 mph - N/A   Overcast
10:45 AM 19.4 °F 11.5 °F 15.8 °F 86% 30.37 in 10.0 mi North 5.8 mph - N/A   Overcast
11:45 AM 21.2 °F 10.9 °F 17.6 °F 86% 30.36 in 10.0 mi North 9.2 mph - N/A   Overcast
12:45 PM 23.0 °F 11.7 °F 19.4 °F 86% 30.30 in 10.0 mi North 11.5 mph - N/A   Overcast
1:45 PM 24.8 °F 14.0 °F 21.2 °F 86% 30.28 in 10.0 mi NE 11.5 mph 17.3 mph N/A   Overcast
2:45 PM 24.8 °F 14.0 °F 21.2 °F 86% 30.25 in 7.0 mi NE 11.5 mph - N/A   Overcast
3:45 PM 26.6 °F 17.5 °F 21.2 °F 80% 30.27 in 10.0 mi ENE 9.2 mph - N/A   Overcast
4:45 PM 26.6 °F 15.7 °F 21.2 °F 80% 30.24 in 10.0 mi East 12.7 mph 20.7 mph N/A   Overcast
5:45 PM 26.6 °F 16.2 °F 21.2 °F 80% 30.23 in 10.0 mi ENE 11.5 mph 18.4 mph N/A   Overcast
6:45 PM 26.6 °F 16.2 °F 21.2 °F 80% 30.21 in 10.0 mi East 11.5 mph - N/A   Overcast
7:45 PM 26.6 °F 16.2 °F 21.2 °F 80% 30.19 in 10.0 mi East 11.5 mph 18.4 mph N/A   Overcast
8:15 PM 26.6 °F 14.7 °F 21.2 °F 80% 30.17 in 10.0 mi East 15.0 mph 20.7 mph N/A   Overcast
8:35 PM 26.6 °F 14.3 °F 21.2 °F 80% 30.16 in 10.0 mi East 16.1 mph 20.7 mph N/A   Overcast
8:45 PM 26.6 °F 15.2 °F 19.4 °F 74% 30.14 in 10.0 mi East 13.8 mph 23.0 mph N/A   Overcast
8:55 PM 26.6 °F 15.2 °F 21.2 °F 80% 30.13 in 10.0 mi East 13.8 mph 25.3 mph N/A   Overcast
9:15 PM 26.6 °F 15.2 °F 21.2 °F 80% 30.11 in 10.0 mi East 13.8 mph 26.5 mph N/A   Overcast
9:35 PM 26.6 °F 14.3 °F 21.2 °F 80% 30.13 in 10.0 mi East 16.1 mph 25.3 mph N/A   Overcast
9:55 PM 26.6 °F 14.7 °F 21.2 °F 80% 30.12 in 10.0 mi East 15.0 mph 23.0 mph N/A   Overcast
10:15 PM 26.6 °F 14.3 °F 21.2 °F 80% 30.11 in 10.0 mi East 16.1 mph 23.0 mph N/A   Overcast
10:35 PM 26.6 °F 16.2 °F 21.2 °F 80% 30.11 in 10.0 mi East 11.5 mph 21.9 mph N/A   Overcast
10:55 PM 26.6 °F 13.8 °F 21.2 °F 80% 30.10 in 10.0 mi East 17.3 mph 23.0 mph N/A   Overcast
11:15 PM 26.6 °F 16.2 °F 21.2 °F 80% 30.09 in 10.0 mi East 11.5 mph 20.7 mph N/A   Overcast
11:35 PM 26.6 °F 14.7 °F 21.2 °F 80% 30.10 in 10.0 mi East 15.0 mph 21.9 mph N/A   Overcast
11:55 PM 26.6 °F 14.3 °F 21.2 °F 80% 30.09 in 10.0 mi East 16.1 mph 21.9 mph N/A   Overcast